Regional Weather Roundup
Issued by NWS

Home | Current Version | Previous Version | Graphics & Text | Print | Product List | Glossary On
Versions: 1 2 3 4 5 6 7 8 9 10 11 12 13 14 15 16 17 18 19 20 21 22 23 24 25 26 27 28 29 30 31 32 33 34 35 36 37 38 39 40 41 42 43 44 45 46 47 48 49 50
000
ASUS44 KMEG 160400
RWRTN
TENNESSEE HOURLY STATE WEATHER ROUNDUP
NATIONAL WEATHER SERVICE MEMPHIS TN
1000 PM CST FRI DEC 15 2017

TNZ002-004-019-021-049-052-054-088>092-160500-
WEST TENNESSEE

CITY           SKY/WX    TMP DP  RH WIND       PRES   REMARKS
MEMPHIS INTL   CLEAR     38  27  64 S10       30.20S WCI  31
NWS MEMPHIS      N/A     38 N/A N/A MISG        N/A
JACKSON        CLEAR     34  26  72 S9        30.20R WCI  27
DYERSBURG      CLEAR     38  27  64 S5        30.18S WCI  34
$$

TNZ008-025-027-028-033-062-065-066-160500-
NORTH MIDDLE TENNESSEE

CITY           SKY/WX    TMP DP  RH WIND       PRES   REMARKS
NASHVILLE      CLEAR     28  22  78 S8        30.20F WCI  20
CLARKSVILLE    CLEAR     33  22  63 S7        30.17S WCI  27
SMYRNA         CLEAR     28  22  78 SE6       30.22F WCI  22
CROSSVILLE     PTCLDY    26  19  74 SW6       30.18S WCI  19
$$

TNZ061-075-076-078-094-096-097-160500-
SOUTH MIDDLE TENNESSEE

CITY           SKY/WX    TMP DP  RH WIND       PRES   REMARKS
WINCHESTER     CLEAR     19  18  93 CALM      30.24R
$$

TNZ017-018-042-046-047-160500-
NORTHEAST TENNESSEE

CITY           SKY/WX    TMP DP  RH WIND       PRES   REMARKS
TRI CITIES     CLOUDY    31  24  75 SW7       30.18R WCI  24
$$

TNZ012-013-036-069-073-074-160500-
CENTRAL EAST TENNESSEE

CITY           SKY/WX    TMP DP  RH WIND       PRES   REMARKS
KNOXVILLE      CLOUDY    27  24  89 S6        30.24R WCI  20
OAK RIDGE      CLOUDY    30  23  75 CALM      30.24R
$$

TNZ083-085-099-160500-
SOUTHEAST TENNESSEE

CITY           SKY/WX    TMP DP  RH WIND       PRES   REMARKS
CHATTANOOGA    PTCLDY    28  22  78 CALM      30.25R
$$

SKY/WX REPORTED AS FAIR MEANS FEW OR NO CLOUDS BELOW
12 THOUSAND FEET.





USA.gov is the U.S. government's official web portal to all federal, state and local government web resources and services.